Location: Delettes
(50.6178°N, 2.2123°E)
Time: 09:49:27
(UTC+00:00)

STARLINK-1033 - Pass Details

Date: 27 February 2020
Orbit: 548 x 551 km, 53.0° (Epoch: 04 April)

Event Time Altitude Azimuth Distance (km) Brightness Sun altitude
Rises 19:46:36 0° 271° (W) 2,719 8.5 -22.6°
Reaches altitude 10° 19:48:52 10° 275° (W) 1,826 7.4 -22.9°
Maximum altitude 19:52:59 62° 357° (N) 626 3.8 -23.5°
Enters shadow 19:53:00 61° 359° (N) 626 3.8 -23.5°
